Location: Bruderhein
(53.8035°N, 112.9265°W)
Time: 14:26:39
(UTC+00:00)

RS-15 - Pass Details

Date: 06 April 2023
Orbit: 1885 x 2159 km, 64.8° (Epoch: 01 June)

Event Time Altitude Azimuth Distance (km) Brightness Sun altitude
Rises 04:17:37 0° 301° (WNW) 5,679 12.2 -17.1°
Reaches altitude 10° 04:21:14 10° 306° (NW) 4,659 11.3 -17.5°
Maximum altitude 04:33:20 61° 26° (NNE) 2,308 8.4 -18.9°
Enters shadow 04:42:27 19° 102° (ESE) 3,800 9.0 -19.9°
